Regional Weather Roundup
Issued by NWS Goodland, KS

Home | Current Version | Previous Version | Graphics & Text | Print | Product List | Glossary On
Versions: 1 2 3 4 5 6 7 8 9 10 11 12 13 14 15 16 17 18 19 20 21 22 23 24 25 26 27 28 29 30 31 32 33 34 35 36 37 38 39 40 41 42 43 44 45 46 47 48 49 50
000
ASUS43 KGLD 260459
RWRGLD

GOODLAND FORECAST AREA HOURLY WEATHER ROUNDUP
NATIONAL WEATHER SERVICE GOODLAND KS
1100 PM MDT FRI JUL 25 2014

...OFFICIAL OBSERVATIONS...

CITY           SKY/WX    TMP DP  RH WIND       PRES   REMARKS
GOODLAND KS    TSTM      75  67  76 W12       29.99F
HILL CITY KS   MOCLDY    79  69  71 E5        29.85S
IMPERIAL NEB   CLOUDY    74  66  76 N6        29.95S
MCCOOK NEB     MOCLDY    74  69  85 N10       29.89S
AKRON CO       CLOUDY    80  47  31 CALM      30.06F
BURLINGTON CO  CLOUDY    71  61  70 S3        30.03F
LIMON CO       MOCLDY    68  55  63 NW7       30.12F
$$

...UNOFFICIAL OBSERVATIONS...

CITY           SKY/WX    TMP DP  RH WIND       PRES   REMARKS
COLBY KS       MOCLDY    77  70  78 CALM      29.94R
GOVE KS          N/A     81  32  17 MISG        N/A
LENORA KS        N/A     79  32  18 MISG        N/A
NORTON KS      CLEAR     73  64  73 NE3       29.84F
SHARON SPRINGS   N/A     69  64  83 W18G43      N/A
KIT CARSON CO    N/A     73  63  70 CALM        N/A
YUMA CO          N/A     77  60  54 CALM        N/A
$$



USA.gov is the U.S. government's official web portal to all federal, state and local government web resources and services.